This is the latest recevied weather packets stored in our database for station/object NK7I. If no packets are shown the sender has not sent any weather packets the latest 1 day(s).
| Time | Temp. | Humidity | Pressure | Rain* | Wind** | Luminosity | Snow |
|---|---|---|---|---|---|---|---|
| 1778043083 | 12.78° C | 51% | 1011.2 hPa | 0 mm | 0 m/s | 0 W/m² | - |
| 1778042783 | 12.78° C | 53% | 1011.2 hPa | 0 mm | 0 m/s | 0 W/m² | - |
| 1778042483 | 12.78° C | 54% | 1011.1 hPa | 0 mm | 0 m/s | 0 W/m² | - |
| 1778042183 | 13.33° C | 54% | 1011 hPa | 0 mm | 0 m/s | 0 W/m² | - |
| 1778041883 | 13.33° C | 55% | 1010.9 hPa | 0 mm | 0.45 m/s, 238° | 0 W/m² | - |
| 1778041583 | 13.89° C | 54% | 1010.8 hPa | 0 mm | 0 m/s | 0 W/m² | - |
| 1778041282 | 13.89° C | 50% | 1010.7 hPa | 0 mm | 0 m/s | 0 W/m² | - |
| 1778040983 | 13.89° C | 51% | 1010.7 hPa | 0 mm | 0 m/s | 0 W/m² | - |
| 1778040683 | 14.44° C | 50% | 1010.6 hPa | 0 mm | 0 m/s | 0 W/m² | - |
| 1778040383 | 14.44° C | 49% | 1010.5 hPa | 0 mm | 0 m/s | 0 W/m² | - |
| 1778040083 | 14.44° C | 50% | 1010.5 hPa | 0 mm | 0 m/s | 0 W/m² | - |
| 1778039783 | 15° C | 52% | 1010.4 hPa | 0 mm | 0 m/s | 0 W/m² | - |
| 1778039483 | 15° C | 52% | 1010.3 hPa | 0 mm | 0 m/s | 0 W/m² | - |
| 1778039183 | 15.56° C | 48% | 1010.2 hPa | 0 mm | 0 m/s | 0 W/m² | - |
| 1778038884 | 15.56° C | 46% | 1010 hPa | 0 mm | 0.45 m/s, 238° | 0 W/m² | - |
| 1778038583 | 15.56° C | 46% | 1010 hPa | 0 mm | 0.45 m/s, 238° | 0 W/m² | - |
| 1778038283 | 16.11° C | 45% | 1010 hPa | 0 mm | 0.45 m/s, 240° | 0 W/m² | - |
| 1778037983 | 16.11° C | 45% | 1009.8 hPa | 0 mm | 0 m/s | 0 W/m² | - |
| 1778037683 | 16.67° C | 48% | 1009.7 hPa | 0 mm | 0 m/s | 0 W/m² | - |
| 1778037383 | 17.78° C | 46% | 1009.7 hPa | 0 mm | 0 m/s | 0 W/m² | - |
| 1778037083 | 18.33° C | 43% | 1009.7 hPa | 0 mm | 0 m/s | 0 W/m² | - |
| 1778036783 | 18.89° C | 42% | 1009.6 hPa | 0 mm | 0 m/s | 5 W/m² | - |
| 1778036483 | 19.44° C | 34% | 1009.5 hPa | 0 mm | 0 m/s | 7 W/m² | - |
| 1778036183 | 20° C | 34% | 1009.5 hPa | 0 mm | 0 m/s | 9 W/m² | - |
| 1778035883 | 20° C | 33% | 1009.5 hPa | 0 mm | 0 m/s | 11 W/m² | - |
* Rain latest hour (hover to see other rain measurements)
** Current wind speed in m/s (hover to see current wind gust speed)